Weather History for K20V - March, 2014

Change the Weather History Date:

Friday, March 14, 2014

  Actual Average (KEGE) Record (KEGE)
Temperature  
Mean Temperature 34 °F -  
Max Temperature 50 °F 47 °F 62 °F (1966)
Min Temperature 17 °F 21 °F -11 °F (1964)
Degree Days  
Heating Degree Days 32    
Moisture  
Dew Point 17 °F    
Average Humidity 59    
Maximum Humidity 86    
Minimum Humidity 24    
Precipitation  
Precipitation 0.00 in - - ()
Sea Level Pressure  
Sea Level Pressure 30.08 in    
Wind  
Wind Speed 2 mph (NE)    
Max Wind Speed 7 mph    
Max Gust Speed -    
Visibility 10 miles    
Events      
Averages and records for this station are not official NWS values.
T = Trace of Precipitation, MM = Missing Value Source: NWS Daily Summary

Daily Weather History Graph

Daily Weather History Graph

Search for Another Location

Airport or City:

Trip Planner

Search our weather history database for the weather conditions in past years. The results will help you decide how hot, cold, wet, or windy it might be!

Date:

Astronomy

Mar. 14, 2014 Rise Set
Actual Time 7:18 AM MDT 7:11 PM MDT
Civil Twilight 6:51 AM MDT 7:38 PM MDT
Nautical Twilight 6:20 AM MDT 8:09 PM MDT
Astronomical Twilight 5:48 AM MDT 8:41 PM MDT
Moon 5:36 PM MDT (3/14) 6:00 AM MDT (3/14)
Length of Visible Light 12h 46m
Length of Day
11h 52m
Waxing Gibbous, 96% of the Moon is Illuminated
Mar 14
Waxing Gibbous
Mar 16
Full
Mar 23
Last Quarter
Mar 30
New
Apr 7
First Quarter

Hourly Weather History & Observations

Time (MDT) Temp. Windchill Dew Point Humidity Pressure Visibility Wind Dir Wind Speed Gust Speed Precip Events Conditions
12:16 AM 28.4 °F 24.6 °F 21.2 °F 74% 30.04 in 10.0 mi ESE 3.5 mph - N/A   Clear
12:36 AM 28.4 °F 22.2 °F 21.2 °F 74% 30.04 in 10.0 mi ESE 5.8 mph - N/A   Clear
12:55 AM 28.4 °F - 21.2 °F 74% 30.06 in 10.0 mi Calm Calm - N/A   Clear
1:16 AM 28.4 °F 21.2 °F 19.4 °F 69% 30.06 in 10.0 mi ESE 6.9 mph - N/A   Clear
1:36 AM 28.4 °F 24.6 °F 19.4 °F 69% 30.06 in 10.0 mi NNE 3.5 mph - N/A   Clear
1:56 AM 28.4 °F 24.6 °F 17.6 °F 64% 30.07 in 10.0 mi NNE 3.5 mph - N/A   Clear
2:16 AM 26.6 °F 22.6 °F 19.4 °F 74% 30.08 in 10.0 mi ESE 3.5 mph - N/A   Clear
2:36 AM 26.6 °F - 19.4 °F 74% 30.08 in 10.0 mi Calm Calm - N/A   Clear
2:56 AM 23.0 °F - 17.6 °F 80% 30.09 in 10.0 mi Calm Calm - N/A   Clear
3:16 AM 23.0 °F - 17.6 °F 80% 30.09 in 10.0 mi Calm Calm - N/A   Clear
3:36 AM 23.0 °F 18.4 °F 17.6 °F 80% 30.09 in 10.0 mi North 3.5 mph - N/A   Clear
3:55 AM 21.2 °F - 17.6 °F 86% 30.09 in 10.0 mi Calm Calm - N/A   Clear
4:16 AM 23.0 °F - 17.6 °F 80% 30.09 in 10.0 mi Calm Calm - N/A   Clear
4:35 AM 21.2 °F - 17.6 °F 86% 30.09 in 10.0 mi Calm Calm - N/A   Clear
4:56 AM 21.2 °F - 17.6 °F 86% 30.10 in 10.0 mi Calm Calm - N/A   Clear
5:16 AM 19.4 °F - 15.8 °F 86% 30.11 in 10.0 mi Calm Calm - N/A   Clear
5:36 AM 19.4 °F - 15.8 °F 86% 30.11 in 10.0 mi Calm Calm - N/A   Clear
5:56 AM 19.4 °F - 14.0 °F 80% 30.12 in 10.0 mi Calm Calm - N/A   Clear
6:16 AM 19.4 °F - 15.8 °F 86% 30.12 in 10.0 mi Calm Calm - N/A   Clear
6:35 AM 19.4 °F - 14.0 °F 80% 30.12 in 10.0 mi Calm Calm - N/A   Clear
6:56 AM 19.4 °F - 14.0 °F 80% 30.13 in 10.0 mi Calm Calm - N/A   Clear
7:15 AM 17.6 °F - 14.0 °F 86% 30.14 in 10.0 mi Calm Calm - N/A   Clear
7:36 AM 17.6 °F - 14.0 °F 86% 30.14 in 10.0 mi Calm Calm - N/A   Clear
7:56 AM 19.4 °F - 14.0 °F 80% 30.15 in 10.0 mi Calm Calm - N/A   Clear
8:16 AM 19.4 °F - 14.0 °F 80% 30.16 in 10.0 mi Calm Calm - N/A   Clear
8:36 AM 21.2 °F - 15.8 °F 80% 30.16 in 10.0 mi Calm Calm - N/A   Clear
8:55 AM 23.0 °F - 15.8 °F 74% 30.16 in 10.0 mi Calm Calm - N/A   Clear
9:16 AM 24.8 °F - 15.8 °F 69% 30.16 in 10.0 mi Calm Calm - N/A   Clear
9:36 AM 28.4 °F - 17.6 °F 64% 30.16 in 10.0 mi Calm Calm - N/A   Clear
9:56 AM 28.4 °F - 17.6 °F 64% 30.16 in 10.0 mi Calm Calm - N/A   Clear
10:16 AM 30.2 °F - 17.6 °F 60% 30.16 in 10.0 mi Calm Calm - N/A   Clear
10:36 AM 30.2 °F - 15.8 °F 55% 30.15 in 10.0 mi Calm Calm - N/A   Clear
10:56 AM 32.0 °F - 14.0 °F 48% 30.15 in 10.0 mi Calm Calm - N/A   Clear
11:16 AM 33.8 °F 30.8 °F 15.8 °F 48% 30.14 in 10.0 mi NE 3.5 mph - N/A   Clear
11:36 AM 33.8 °F - 14.0 °F 44% 30.14 in 10.0 mi Calm Calm - N/A   Clear
11:56 AM 35.6 °F 32.8 °F 17.6 °F 48% 30.13 in 10.0 mi East 3.5 mph - N/A   Clear
12:15 PM 37.4 °F - 15.8 °F 41% 30.12 in 10.0 mi Calm Calm - N/A   Clear
12:36 PM 37.4 °F - 17.6 °F 45% 30.12 in 10.0 mi Calm Calm - N/A   Clear
12:56 PM 39.2 °F 37.0 °F 17.6 °F 42% 30.11 in 10.0 mi East 3.5 mph - N/A   Clear
1:16 PM 41.0 °F 38.0 °F 17.6 °F 39% 30.11 in 10.0 mi NNE 4.6 mph - N/A   Clear
1:36 PM 42.8 °F 40.1 °F 17.6 °F 36% 30.10 in 10.0 mi East 4.6 mph - N/A   Clear
1:56 PM 42.8 °F 38.6 °F 17.6 °F 36% 30.08 in 10.0 mi ENE 6.9 mph - N/A   Clear
2:16 PM 44.6 °F 41.4 °F 17.6 °F 34% 30.07 in 10.0 mi ENE 5.8 mph - N/A   Clear
2:36 PM 46.4 °F 42.9 °F 19.4 °F 34% 30.07 in 10.0 mi NE 6.9 mph - N/A   Clear
2:56 PM 46.4 °F 45.2 °F 17.6 °F 32% 30.06 in 10.0 mi NNW 3.5 mph - N/A   Clear
3:16 PM 46.4 °F - 17.6 °F 32% 30.05 in 10.0 mi Calm Calm - N/A   Clear
3:35 PM 50.0 °F - 14.0 °F 24% 30.04 in 10.0 mi ENE 4.6 mph - N/A   Clear
3:56 PM 50.0 °F - 14.0 °F 24% 30.04 in 10.0 mi Calm Calm - N/A   Clear
4:16 PM 50.0 °F - 14.0 °F 24% 30.04 in 10.0 mi Calm Calm - N/A   Clear
4:36 PM 50.0 °F - 14.0 °F 24% 30.02 in 10.0 mi NNE 3.5 mph - N/A   Clear
4:56 PM 50.0 °F - 15.8 °F 26% 30.02 in 10.0 mi ENE 3.5 mph - N/A   Clear
5:16 PM 50.0 °F - 17.6 °F 28% 30.02 in 10.0 mi Calm Calm - N/A   Clear
5:36 PM 50.0 °F - 17.6 °F 28% 30.01 in 10.0 mi Calm Calm - N/A   Scattered Clouds
5:56 PM 46.4 °F 44.3 °F 14.0 °F 27% 30.02 in 10.0 mi NNW 4.6 mph - N/A   Scattered Clouds
6:16 PM 44.6 °F 41.4 °F 15.8 °F 31% 30.01 in 10.0 mi North 5.8 mph - N/A   Mostly Cloudy
6:36 PM 42.8 °F 41.1 °F 14.0 °F 31% 30.02 in 10.0 mi NNW 3.5 mph - N/A   Scattered Clouds
6:56 PM 42.8 °F - 14.0 °F 31% 30.02 in 10.0 mi Calm Calm - N/A   Scattered Clouds
7:16 PM 41.0 °F - 12.2 °F 31% 30.02 in 10.0 mi Calm Calm - N/A   Clear
7:36 PM 39.2 °F - 14.0 °F 36% 30.02 in 10.0 mi Calm Calm - N/A   Clear
7:55 PM 35.6 °F - 19.4 °F 52% 30.02 in 10.0 mi Calm Calm - N/A   Clear
8:16 PM 33.8 °F - 21.2 °F 60% 30.04 in 10.0 mi Calm Calm - N/A   Scattered Clouds
8:36 PM 33.8 °F - 21.2 °F 60% 30.04 in 10.0 mi Calm Calm - N/A   Scattered Clouds
8:55 PM 32.0 °F - 21.2 °F 64% 30.04 in 10.0 mi Calm Calm - N/A   Scattered Clouds
9:16 PM 30.2 °F - 21.2 °F 69% 30.04 in 10.0 mi Calm Calm - N/A   Clear
9:36 PM 30.2 °F - 21.2 °F 69% 30.04 in 10.0 mi Calm Calm - N/A   Clear
9:56 PM 30.2 °F 26.7 °F 23.0 °F 75% 30.04 in 10.0 mi East 3.5 mph - N/A   Clear
10:16 PM 30.2 °F - 23.0 °F 75% 30.04 in 10.0 mi Calm Calm - N/A   Clear
10:36 PM 30.2 °F - 21.2 °F 69% 30.04 in 10.0 mi Calm Calm - N/A   Clear
10:56 PM 28.4 °F 24.6 °F 21.2 °F 74% 30.04 in 10.0 mi NE 3.5 mph - N/A   Clear
11:15 PM 28.4 °F - 21.2 °F 74% 30.04 in 10.0 mi Calm Calm - N/A   Clear
11:36 PM 28.4 °F 24.6 °F 21.2 °F 74% 30.04 in 10.0 mi SSE 3.5 mph - N/A   Clear
11:55 PM 26.6 °F - 21.2 °F 80% 30.04 in 10.0 mi Calm Calm - N/A   Clear